Weather History for Frenchville, ME

Change the Weather History Date:

Tuesday, April 9, 2013

  Actual Average Record
Temperature  
Mean Temperature 31 °F 34 °F  
Max Temperature 35 °F 41 °F 51 °F (2008)
Min Temperature 27 °F 26 °F 10 °F (1997)
Degree Days  
Heating Degree Days 34    
Month to date heating degree days 343  
Since 1 July heating degree days 7966  
Cooling Degree Days 0    
Month to date cooling degree days 0  
Year to date cooling degree days 0  
Moisture  
Dew Point 29 °F    
Average Humidity 88    
Maximum Humidity 100    
Minimum Humidity 78    
Precipitation  
Precipitation 0.02 in 0.10 in 0.40 in (2002)
Month to date precipitation 0.16 0.79  
Year to date precipitation 3.32 4.84  
Sea Level Pressure  
Sea Level Pressure 30.01 in    
Wind  
Wind Speed 5 mph (ESE)    
Max Wind Speed 10 mph    
Max Gust Speed 14 mph    
Visibility 4 miles    
Events Fog , Snow    
T = Trace of Precipitation, MM = Missing Value Source: NWS Daily Summary

Daily Weather History Graph

Daily Weather History Graph

Search for Another Location

Airport:

Trip Planner

Search our weather history database for the weather conditions in past years. The results will help you decide how hot, cold, wet, or windy it might be!

Date:

Astronomy

Apr. 09, 2013 Rise Set
Actual Time 5:56 AM EDT 7:14 PM EDT
Civil Twilight 5:24 AM EDT 7:45 PM EDT
Nautical Twilight 4:46 AM EDT 8:24 PM EDT
Astronomical Twilight 4:05 AM EDT 9:05 PM EDT
Moon 5:18 AM EDT (4/9) 6:46 PM EDT (4/9)
Length of Visible Light 14h 21m
Length of Day
13h 18m
Waning Crescent, 1% of the Moon is Illuminated
Apr 9
Waning Crescent
Apr 10
New
Apr 18
First Quarter
Apr 25
Full
May 2
Last Quarter

Hourly Weather History & Observations

Time (EDT) Temp. Windchill Dew Point Humidity Pressure Visibility Wind Dir Wind Speed Gust Speed Precip Events Conditions
12:53 AM 28.9 °F - 23.0 °F 78% 30.15 in 10.0 mi Calm Calm - N/A   Clear
1:53 AM 28.9 °F 25.2 °F 23.0 °F 78% 30.12 in 10.0 mi ESE 3.5 mph - N/A   Clear
2:53 AM 28.0 °F 22.8 °F 21.9 °F 78% 30.10 in 10.0 mi East 4.6 mph - N/A   Clear
3:53 AM 28.0 °F 21.7 °F 23.0 °F 81% 30.09 in 10.0 mi ESE 5.8 mph - N/A   Clear
4:53 AM 28.0 °F 21.7 °F 23.0 °F 81% 30.07 in 10.0 mi ENE 5.8 mph - N/A   Clear
5:53 AM 28.0 °F 22.8 °F 23.0 °F 81% 30.06 in 10.0 mi East 4.6 mph - N/A   Overcast
6:53 AM 28.0 °F 22.8 °F 23.0 °F 81% 30.08 in 10.0 mi East 4.6 mph - N/A   Overcast
7:53 AM 28.9 °F 22.8 °F 23.0 °F 78% 30.09 in 10.0 mi East 5.8 mph - N/A   Overcast
8:35 AM 28.4 °F 21.2 °F 24.8 °F 86% 30.04 in 1.8 mi East 6.9 mph - 0.00 in Snow Light Snow
8:51 AM 28.4 °F 22.2 °F 24.8 °F 86% 30.04 in 3.0 mi East 5.8 mph - 0.00 in Snow Light Snow
8:53 AM 28.9 °F 22.8 °F 24.1 °F 82% 30.07 in 3.0 mi East 5.8 mph - 0.00 in Snow Light Snow
9:05 AM 28.4 °F 22.2 °F 24.8 °F 86% 30.03 in 2.5 mi East 5.8 mph - 0.00 in Snow Light Snow
9:32 AM 30.2 °F 22.6 °F 26.6 °F 86% 30.02 in 3.0 mi East 8.1 mph - 0.00 in Snow Light Snow
9:45 AM 30.2 °F 23.4 °F 26.6 °F 86% 30.02 in 2.0 mi East 6.9 mph - 0.00 in Snow Light Snow
9:53 AM 30.9 °F 23.5 °F 27.0 °F 85% 30.05 in 1.5 mi East 8.1 mph - 0.00 in Snow Light Snow
10:22 AM 30.2 °F 25.4 °F 28.4 °F 93% 30.03 in 2.0 mi ESE 4.6 mph - 0.00 in Snow Light Snow
10:32 AM 30.2 °F 23.4 °F 26.6 °F 86% 30.02 in 7.0 mi ESE 6.9 mph - 0.00 in   Overcast
10:53 AM 30.9 °F 25.2 °F 28.0 °F 89% 30.05 in 6.0 mi East 5.8 mph - 0.00 in Snow Light Snow
11:22 AM 32.0 °F 25.6 °F 28.4 °F 87% 30.01 in 1.8 mi East 6.9 mph - 0.00 in Snow Light Snow
11:31 AM 32.0 °F 25.6 °F 28.4 °F 87% 30.01 in 3.0 mi East 6.9 mph - 0.00 in Snow Light Snow
11:38 AM 33.8 °F 29.6 °F 28.4 °F 81% 30.01 in 4.0 mi Variable 4.6 mph - 0.00 in Snow Light Snow
11:53 AM 33.1 °F 26.9 °F 28.9 °F 85% 30.04 in 2.0 mi East 6.9 mph - 0.00 in Snow Light Snow
12:16 PM 33.8 °F 26.4 °F 30.2 °F 87% 29.99 in 1.5 mi East 9.2 mph - 0.00 in Snow Light Snow
12:24 PM 33.8 °F 27.0 °F 30.2 °F 87% 29.99 in 1.0 mi East 8.1 mph - 0.00 in Snow Light Snow
12:31 PM 33.8 °F 27.0 °F 30.2 °F 87% 29.98 in 1.0 mi East 8.1 mph - 0.00 in Snow Light Snow
12:43 PM 33.8 °F 27.7 °F 30.2 °F 87% 29.98 in 1.8 mi East 6.9 mph - 0.00 in Snow Light Snow
12:51 PM 33.8 °F 27.7 °F 30.2 °F 87% 29.98 in 3.0 mi ESE 6.9 mph - 0.00 in Snow Light Snow
12:53 PM 33.1 °F 26.9 °F 30.9 °F 92% 30.01 in 3.0 mi ESE 6.9 mph - 0.00 in Snow Light Snow
1:53 PM 35.1 °F 28.6 °F 32.0 °F 89% 30.00 in 10.0 mi ESE 8.1 mph - 0.00 in   Overcast
2:53 PM 35.1 °F 30.1 °F 32.0 °F 89% 30.00 in 8.0 mi ESE 5.8 mph - 0.00 in   Overcast
3:53 PM 35.1 °F 31.0 °F 32.0 °F 89% 29.99 in 10.0 mi East 4.6 mph - 0.00 in   Overcast
4:53 PM 35.1 °F 31.0 °F 33.1 °F 92% 29.97 in 2.5 mi ESE 4.6 mph - N/A   Overcast
5:25 PM 33.8 °F 29.6 °F 33.8 °F 100% 29.94 in 1.8 mi SE 4.6 mph - N/A   Overcast
5:29 PM 33.8 °F 30.8 °F 33.8 °F 100% 29.94 in 1.2 mi SE 3.5 mph - N/A   Overcast
5:37 PM 33.8 °F 29.6 °F 33.8 °F 100% 29.93 in 0.2 mi SE 4.6 mph - N/A Fog Fog
5:53 PM 34.0 °F 29.8 °F 34.0 °F 100% 29.96 in 0.2 mi SE 4.6 mph - N/A Fog Fog
6:53 PM 34.0 °F 28.8 °F 34.0 °F 100% 29.92 in 0.8 mi SE 5.8 mph - 0.01 in   Mist
7:53 PM 34.0 °F 29.8 °F 33.1 °F 96% 29.96 in 0.2 mi SW 4.6 mph - N/A Fog Fog
8:53 PM 34.0 °F 29.8 °F 33.1 °F 96% 29.98 in 0.2 mi SW 4.6 mph - N/A Fog Fog
9:53 PM 33.1 °F 28.7 °F 33.1 °F 100% 29.95 in 0.2 mi SSW 4.6 mph - 0.00 in Fog Fog
10:53 PM 33.1 °F 30.0 °F 33.1 °F 100% 29.93 in 0.2 mi South 3.5 mph - N/A Fog Fog
11:53 PM 33.1 °F 28.7 °F 32.0 °F 96% 29.91 in 0.2 mi South 4.6 mph - 0.00 in Fog , Snow Light Snow